"2009-04-06 00:00:30",775055,5.412,38.71,4.853,0.681,1.232,99.12407,-2.932,-1.578,77.88,0,109.4,13.65,-2.19,0.7
"2009-04-06 00:01:00",775056,4.08,31.94,9.09,1.197,-0.1,99.123,-2.935,-1.6,77.9,0,109.4,13.64,-2.19,353.9
"2009-04-06 00:01:30",775057,3.63,27.71,7.359,1.341,-0.136,99.12412,-2.932,-1.641,77.79,0,109.4,13.64,-2.19,349.7
"2009-04-06 00:02:00",775058,2.479,359.1,14.48,1.162,-2.178,99.12497,-2.93,-1.757,77.58,0,109.4,13.64,-2.19,321.1
"2009-04-06 00:02:30",775059,3.409,11.21,11.48,1.343,0.412,99.12693,-2.925,-1.61,77.63,0,109.4,13.64,-2.18,333.2
"2009-04-06 00:03:00",775060,3.854,14.05,6.002,1.096,-1.641,99.12693,-2.925,-1.753,77.47,0,109.4,13.64,-2.18,336.0
"2009-04-06 00:03:30",775061,4.836,13.58,9.99,1.301,0.497,99.12805,-2.922,-1.61,77.62,0,109.4,13.64,-2.18,335.6
"2009-04-06 00:04:00",775062,4.149,5.581,7.485,1.329,0.533,99.13,-2.917,-1.628,77.52,0,109.4,13.64,-2.18,327.6
"2009-04-06 00:04:30",775063,4.628,6.952,13.47,1.525,1.039,99.11385,-2.958,-1.585,77.54,0,109.4,13.65,-2.22,329.0
"2009-04-06 00:05:00",775064,3.747,0.91,10.05,1.021,-0.896,99.09944,-2.995,-1.711,77.46,0,109.4,13.65,-2.25,322.9
"2009-04-06 00:05:30",775065,4.281,355,7.051,1.638,-1.062,99.09743,-3,-1.714,77.56,0,109.4,13.65,-2.26,317.0
"2009-04-06 00:06:00",775066,4.804,359.6,8.75,1.111,0.319,99.098,-2.998,-1.719,77.71,0,109.4,13.65,-2.26,321.6
"2009-04-06 00:06:30",775067,3.863,1.668,8.77,1.145,0.623,99.09827,-2.998,-1.641,77.93,0,109.4,13.65,-2.26,323.7
"2009-04-06 00:07:00",775068,3.923,1.233,6.853,1.202,0.028,99.09061,-3.017,-1.714,78.11,0,109.4,13.65,-2.28,323.2
"2009-04-06 00:07:30",775069,4.492,22,13.96,0.843,0.578,99.08352,-3.035,-1.662,78.39,0,109.4,13.65,-2.29,344.0
"2009-04-06 00:08:00",775070,3.644,25.27,9.59,1.316,-1.366,99.07163,-3.065,-1.903,78.21,0,109.4,13.65,-2.32,347.3
"2009-04-06 00:08:30",775071,3.326,22.23,11.68,1.51,-0.476,99.06934,-3.071,-1.735,78.34,0,109.4,13.65,-2.33,344.2
"2009-04-06 00:09:00",775072,1.431,5.549,17.01,1.146,-1.031,99.07076,-3.068,-1.785,78.22,0,109.4,13.65,-2.33,327.5
"2009-04-06 00:09:30",775073,2.107,20.56,16.2,1.453,-1.009,99.06735,-3.076,-1.827,78.51,0,109.4,13.65,-2.34,342.6
"2009-04-06 00:10:00",775074,3.534,30.79,6.169,1.191,-0.692,99.05545,-3.107,-1.807,78.71,0,109.4,13.66,-2.37,352.8
"2009-04-06 00:10:30",775075,3.286,26.51,6.533,1.2,-0.955,99.05063,-3.119,-1.851,78.61,0,109.4,13.66,-2.38,348.5
"2009-04-06 00:11:00",775076,3.794,27.18,5.759,1.042,0.44,99.04211,-3.141,-1.76,78.55,0,109.4,13.66,-2.40,349.2
"2009-04-06 00:11:30",775077,3.672,28.05,6.637,1.109,0.302,99.03984,-3.146,-1.847,78.26,0,109.4,13.66,-2.41,350.0
"2009-04-06 00:12:00",775078,2.693,23.14,7.092,1.24,-0.59,99.04041,-3.145,-1.81,78.14,0,109.4,13.66,-2.40,345.1
"2009-04-06 00:12:30",775079,2.006,18.12,5.565,1.038,-2.109,99.03984,-3.146,-1.983,77.79,0,109.4,13.66,-2.41,340.1
"2009-04-06 00:13:00",775080,2.871,22.68,7.227,1.073,-0.257,99.04124,-3.143,-1.967,77.66,0,109.4,13.66,-2.40,344.7
"2009-04-06 00:13:30",775081,2.181,16.99,7.528,1.125,-1.651,99.04041,-3.145,-1.907,77.57,0,109.4,13.67,-2.40,339.0
"2009-04-06 00:14:00",775082,2.595,18.21,14.45,1.157,0.192,99.04041,-3.145,-1.898,77.48,0,109.4,13.66,-2.40,340.2
"2009-04-06 00:14:30",775083,3.241,24.86,6.988,1.225,-0.901,99.04013,-3.146,-1.907,77.63,0,109.4,13.66,-2.40,346.9
"2009-04-06 00:15:00",775084,3.156,27.92,7.035,1.184,-0.297,99.04068,-3.144,-1.833,77.69,0,109.4,13.67,-2.40,349.9
"2009-04-06 00:15:30",775085,3.45,30.75,6.532,1.175,-0.586,99.04124,-3.143,-1.823,77.55,0,109.4,13.67,-2.40,352.8
"2009-04-06 00:16:00",775086,4.792,36.33,5.151,0.845,0.224,99.04237,-3.14,-1.957,77.17,0,109.4,13.67,-2.40,358.3
"2009-04-06 00:16:30",775087,4.211,32.52,5.762,1.119,0.337,99.04263,-3.139,-1.864,76.96,0,109.4,13.66,-2.40,354.5
"2009-04-06 00:17:00",775088,3.808,32.66,7.815,1.174,0.223,99.03613,-3.156,-1.866,76.71,0,109.4,13.66,-2.42,354.7
"2009-04-06 00:17:30",775089,3.239,29.3,7.331,1.14,-1.028,99.02988,-3.172,-1.916,76.38,0,109.4,13.65,-2.43,351.3
"2009-04-06 00:18:00",775090,4.507,33.07,6.2,1.117,0.386,99.02477,-3.185,-1.862,76.16,0,109.4,13.65,-2.44,355.1
"2009-04-06 00:18:30",775091,4.377,33.87,6.158,1.094,0.534,99.0276,-3.178,-1.892,75.94,0,109.4,13.65,-2.44,355.9
"2009-04-06 00:19:00",775092,5.816,36.34,5.866,0.966,0.559,99.02335,-3.188,-1.868,75.81,0,109.4,13.65,-2.45,358.3
"2009-04-06 00:19:30",775093,5.109,33.34,7.072,1.185,0.505,99.01513,-3.209,-1.901,75.95,0,109.4,13.65,-2.47,355.3
"2009-04-06 00:20:00",775094,6.078,42.33,5.923,1.006,1.578,99.01399,-3.212,-1.824,76.26,0,109.4,13.65,-2.47,4.3
"2009-04-06 00:20:30",775095,6.2,44.2,3.664,0.923,1.55,99.01371,-3.213,-1.842,76.69,0,109.4,13.65,-2.47,6.2
"2009-04-06 00:21:00",775096,5.818,41.94,6.594,1.116,0.874,99.01399,-3.212,-1.916,76.99,0,109.4,13.65,-2.47,3.9
"2009-04-06 00:21:30",775097,5.619,41.47,6.721,1.219,-0.164,99.00945,-3.224,-1.928,77.29,0,109.4,13.66,-2.48,3.5
"2009-04-06 00:22:00",775098,6.074,48.16,3.916,0.9,1.008,98.98821,-3.278,-1.871,77.63,0,109.4,13.66,-2.54,10.2
"2009-04-06 00:22:30",775099,5.546,42.2,3.968,0.364,1.458,98.98028,-3.298,-1.886,77.89,0,109.4,13.66,-2.56,4.2
"2009-04-06 00:23:00",775100,4.393,38.45,6.865,1.055,0.424,98.98028,-3.298,-1.965,78,0,109.4,13.66,-2.56,0.5
"2009-04-06 00:23:30",775101,4.013,26.43,6.064,1.238,-0.762,98.98028,-3.298,-2.028,78.17,0,109.4,13.66,-2.56,348.4
"2009-04-06 00:24:00",775102,4.211,33.8,8.08,1.035,0.681,98.97971,-3.3,-2.012,78.43,0,109.4,13.66,-2.56,355.8
"2009-04-06 00:24:30",775103,4.273,40.99,7.542,1.256,0.245,98.97632,-3.308,-1.96,78.73,0,109.4,13.67,-2.57,3.0
"2009-04-06 00:25:00",775104,5.558,44.85,5.189,1.079,0.914,98.96442,-3.339,-1.968,79.04,0,109.4,13.67,-2.60,6.8
"2009-04-06 00:25:30",775105,5.723,47.37,4.536,0.958,0.636,98.94997,-3.375,-1.985,79.36,0,109.4,13.67,-2.64,9.4
"2009-04-06 00:26:00",775106,5.711,45.84,7.062,1.159,0.472,98.94629,-3.385,-2.01,79.68,0,109.4,13.67,-2.64,7.8
"2009-04-06 00:26:30",775107,5.588,39.94,5.403,0.903,1.596,98.94629,-3.385,-1.975,80,0,109.4,13.67,-2.64,1.9
"2009-04-06 00:27:00",775108,6.359,42.61,5.9,1.309,1.058,98.94063,-3.399,-2.071,80.3,0,109.4,13.67,-2.66,4.6
"2009-04-06 00:27:30",775109,6.563,42.43,5.818,1.184,0.101,98.91966,-3.453,-2.066,80.5,0,109.4,13.67,-2.71,4.4
"2009-04-06 00:28:00",775110,7.268,47.21,3.948,0.872,1.872,98.91231,-3.471,-2.021,80.7,0,109.4,13.67,-2.73,9.2
"2009-04-06 00:28:30",775111,6.859,44.9,4.541,0.952,2.009,98.91145,-3.474,-2.021,80.9,0,109.4,13.67,-2.73,6.9
"2009-04-06 00:29:00",775112,6.834,48.21,3.165,0.822,1.685,98.89219,-3.523,-2.052,81.2,0,109.4,13.67,-2.78,10.2
"2009-04-06 00:29:30",775113,6.565,50.33,4.228,0.792,1.482,98.88171,-3.549,-2.081,81.5,0,109.4,13.67,-2.81,12.3
"2009-04-06 00:30:00",775114,5.618,48.32,5.86,0.739,1.448,98.8783,-3.558,-2.091,81.8,0,109.4,13.67,-2.82,10.3
"2009-04-06 00:30:30",775115,4.797,41.12,4.612,0.723,1.044,98.87803,-3.559,-2.121,82.1,0,109.4,13.67,-2.82,3.1
"2009-04-06 00:31:00",775116,4.889,41.43,4.399,0.573,0.886,98.87009,-3.579,-2.145,82.3,0,109.4,13.67,-2.84,3.4
"2009-04-06 00:31:30",775117,4.075,36.82,5.363,1.151,-1.247,98.84914,-3.632,-2.258,82.5,0,109.4,13.67,-2.89,358.8
"2009-04-06 00:32:00",775118,2.943,31.14,4.574,0.312,-3.609,98.84432,-3.645,-2.471,82.6,0,109.3,13.7,-2.91,353.1
"2009-04-06 00:32:30",775119,3.941,29.66,5.299,1.072,-1.861,98.84432,-3.645,-2.381,82.9,0,109.4,13.67,-2.91,351.7
"2009-04-06 00:33:00",775120,5.131,40.48,8.83,1.105,0.701,98.84432,-3.645,-2.205,83.3,0,109.4,13.67,-2.91,2.5
"2009-04-06 00:33:30",775121,5.212,46.28,7.748,0.64,1.778,98.84432,-3.645,-2.21,83.6,0,109.4,13.67,-2.91,8.3
"2009-04-06 00:34:00",775122,5.276,50.41,6.015,0.578,1.72,98.84092,-3.653,-2.231,83.8,0,109.4,13.67,-2.91,12.4
"2009-04-06 00:34:30",775123,5.43,42.75,4.925,0.793,1.274,98.82959,-3.682,-2.229,83.9,0,109.3,13.67,-2.94,4.8
"2009-04-06 00:35:00",775124,6.708,54.4,4.663,0.805,0.963,98.8208,-3.704,-2.258,84,0,109.3,13.66,-2.97,16.4
"2009-04-06 00:35:30",775125,6.03,48.7,3.789,0.721,1.174,98.81089,-3.73,-2.272,83.9,0,109.3,13.66,-2.99,10.7
"2009-04-06 00:36:00",775126,6.02,45.94,2.803,0.525,0.998,98.80096,-3.755,-2.309,83.8,0,109.3,13.66,-3.02,7.9
"2009-04-06 00:36:30",775127,5.8,46.82,3.827,0.842,0.809,98.78059,-3.807,-2.324,83.7,0,109.3,13.66,-3.07,8.8
"2009-04-06 00:37:00",775128,5.885,44.85,3.694,0.823,0.656,98.77969,-3.809,-2.355,83.7,0,109.3,13.66,-3.07,6.8
"2009-04-06 00:37:30",775129,5.735,42.5,4.043,0.741,0.568,98.7783,-3.813,-2.358,83.7,0,109.3,13.66,-3.07,4.5
"2009-04-06 00:38:00",775130,5.593,42.31,5.52,1.234,-0.626,98.7692,-3.836,-2.543,83.6,0,109.4,13.67,-3.10,4.3
"2009-04-06 00:38:30",775131,4.379,36.54,4.791,0.988,-2.87,98.75047,-3.884,-2.607,83.5,0,109.4,13.67,-3.15,358.5
"2009-04-06 00:39:00",775132,5.043,43.08,8.06,1.414,-0.76,98.75101,-3.882,-2.516,83.5,0,109.4,13.67,-3.14,5.1
"2009-04-06 00:39:30",775133,5.59,45.35,5.804,0.948,1.044,98.73628,-3.92,-2.507,83.4,0,109.4,13.67,-3.18,7.3
"2009-04-06 00:40:00",775134,6.394,51.82,4.307,0.79,1.686,98.72095,-3.959,-2.472,83.3,0,109.4,13.67,-3.22,13.8
"2009-04-06 00:40:30",775135,6.198,49.77,5.342,0.709,1.801,98.7215,-3.957,-2.517,83.2,0,109.3,13.67,-3.22,11.8
"2009-04-06 00:41:00",775136,6.852,51.26,4.435,0.717,1.7,98.71724,-3.968,-2.556,83.1,0,109.3,13.67,-3.23,13.3
"2009-04-06 00:41:30",775137,7.131,52,3.711,0.716,1.624,98.70385,-4.002,-2.574,83,0,109.3,13.67,-3.26,14.0
"2009-04-06 00:42:00",775138,6.622,50.17,3.447,0.689,1.513,98.69337,-4.029,-2.601,82.8,0,109.4,13.67,-3.29,12.2
"2009-04-06 00:42:30",775139,6.51,49.38,2.916,0.679,1.39,98.6914,-4.034,-2.613,82.7,0,109.3,13.67,-3.30,11.4
"2009-04-06 00:43:00",775140,6.272,51.12,2.962,0.748,1.354,98.67777,-4.069,-2.647,82.5,0,109.3,13.67,-3.33,13.1
"2009-04-06 00:43:30",775141,5.993,52.5,3.352,0.661,1.409,98.66505,-4.101,-2.674,82.5,0,109.3,13.67,-3.36,14.5
"2009-04-06 00:44:00",775142,6.092,51.38,3.424,0.506,1.079,98.6619,-4.109,-2.684,82.5,0,109.3,13.67,-3.37,13.4
"2009-04-06 00:44:30",775143,6.066,51.14,2.656,0.727,1.005,98.66134,-4.111,-2.69,82.5,0,109.3,13.67,-3.37,13.1
"2009-04-06 00:45:00",775144,5.985,52.36,2.724,0.682,0.947,98.66078,-4.112,-2.727,82.6,0,109.3,13.67,-3.37,14.4
"2009-04-06 00:45:30",775145,5.373,47.83,5.254,0.747,1.143,98.66106,-4.111,-2.731,82.8,0,109.3,13.67,-3.37,9.8
"2009-04-06 00:46:00",775146,5.428,46.92,4.877,0.866,0.858,98.66133,-4.111,-2.731,82.9,0,109.3,13.67,-3.37,8.9
"2009-04-06 00:46:30",775147,4.899,47.71,4.12,0.932,-2.237,98.65453,-4.128,-2.943,82.8,0,109.3,13.67,-3.39,9.7
"2009-04-06 00:47:00",775148,3.732,49.53,2.132,0.157,-2.834,98.65224,-4.134,-2.955,82.9,0,109.3,13.71,-3.40,11.5
"2009-04-06 00:47:30",775149,6.152,57.17,3.691,0.9,1.232,98.64629,-4.149,-2.815,82.9,0,109.3,13.68,-3.41,19.2
"2009-04-06 00:48:00",775150,6.76,54.7,4.108,0.678,2.669,98.64539,-4.151,-2.782,82.7,0,109.3,13.68,-3.41,16.7
"2009-04-06 00:48:30",775151,7.008,54.98,4.221,0.754,2.774,98.64001,-4.165,-2.774,82.4,0,109.3,13.68,-3.43,17.0
"2009-04-06 00:49:00",775152,6.685,53.96,3.918,0.665,2.866,98.63887,-4.168,-2.798,82.1,0,109.3,13.67,-3.43,16.0
"2009-04-06 00:49:30",775153,6.693,55.25,3.456,0.633,2.753,98.64056,-4.163,-2.803,81.7,0,109.3,13.67,-3.43,17.2
"2009-04-06 00:50:00",775154,6.507,55.39,2.79,0.739,2.408,98.64591,-4.15,-2.801,81.2,0,109.3,13.67,-3.41,17.4
"2009-04-06 00:50:30",775155,6.777,55.91,3.927,0.634,2.17,98.64706,-4.147,-2.809,80.7,0,109.3,13.67,-3.41,17.9
"2009-04-06 00:51:00",775156,6.764,55.01,2.975,0.65,2.085,98.65158,-4.135,-2.816,79.88,0,109.3,13.67,-3.40,17.0
"2009-04-06 00:51:30",775157,6.655,54.41,3.691,0.62,1.744,98.65244,-4.133,-2.838,78.9,0,109.3,13.67,-3.40,16.4
"2009-04-06 00:52:00",775158,6.354,55.77,3.268,0.802,1.723,98.65726,-4.121,-2.832,77.72,0,109.3,13.67,-3.38,17.8
"2009-04-06 00:52:30",775159,6.437,58.49,3.416,0.472,1.537,98.66265,-4.107,-2.839,76.23,0,109.3,13.67,-3.37,20.5
"2009-04-06 00:53:00",775160,6.64,56.93,2.584,0.705,1.519,98.66831,-4.093,-2.851,74.82,0,109.3,13.67,-3.36,18.9
"2009-04-06 00:53:30",775161,6.635,54.52,2.811,0.753,1.42,98.67001,-4.088,-2.842,73.54,0,109.3,13.67,-3.35,16.5
"2009-04-06 00:54:00",775162,6.913,53.04,3.046,0.543,1.411,98.66972,-4.089,-2.832,72.6,0,109.3,13.67,-3.35,15.0
"2009-04-06 00:54:30",775163,6.591,51.5,4.582,0.498,1.597,98.66805,-4.093,-2.807,71.99,0,109.3,13.67,-3.36,13.5
"2009-04-06 00:55:00",775164,6.264,48.85,3.414,0.649,1.317,98.67226,-4.083,-2.819,71.55,0,109.3,13.68,-3.35,10.8
"2009-04-06 00:55:30",775165,6.401,47.91,3.243,0.629,1.36,98.68272,-4.056,-2.795,71.24,0,109.3,13.68,-3.32,9.9
"2009-04-06 00:56:00",775166,6.155,46.83,3.545,0.671,1.209,98.68811,-4.042,-2.79,71.07,0,109.3,13.68,-3.30,8.8
"2009-04-06 00:56:30",775167,5.688,42.87,5.765,0.769,1.154,98.68839,-4.042,-2.765,71.18,0,109.3,13.68,-3.30,4.9
"2009-04-06 00:57:00",775168,5.556,44,4.129,0.821,1.072,98.69489,-4.025,-2.748,71.24,0,109.3,13.68,-3.29,6.0
"2009-04-06 00:57:30",775169,4.547,40.81,5.9,1.118,-0.799,98.70396,-4.002,-2.774,71.21,0,109.3,13.68,-3.26,2.8
"2009-04-06 00:58:00",775170,4.355,36.99,6.75,1.326,-2.426,98.70763,-3.993,-2.951,70.99,0,109.3,13.68,-3.25,359.0
"2009-04-06 00:58:30",775171,5.139,39.71,6.212,1.368,0.391,98.70792,-3.992,-2.81,71.21,0,109.3,13.68,-3.25,1.7
"2009-04-06 00:59:00",775172,6.223,46.63,5.088,0.873,1.489,98.70792,-3.992,-2.753,71.45,0,109.3,13.68,-3.25,8.6
"2009-04-06 00:59:30",775173,5.518,45.57,5.931,0.83,2.367,98.70792,-3.992,-2.709,71.56,0,109.3,13.68,-3.25,7.6
"2009-04-06 01:00:00",775174,5.734,47.49,5.479,0.89,2.212,98.70792,-3.992,-2.722,71.75,0,109.3,13.68,-3.25,9.5
"2009-04-06 01:00:30",775175,6.74,54.44,4.507,0.73,2.057,98.70792,-3.992,-2.681,72.04,0,109.3,13.68,-3.25,16.4
"2009-04-06 01:01:00",775176,6.763,53.12,3.37,0.725,1.998,98.70792,-3.992,-2.713,71.99,0,109.3,13.68,-3.25,15.1
"2009-04-06 01:01:30",775177,6.79,53.59,4.914,0.482,1.808,98.70792,-3.992,-2.715,71.68,0,109.3,13.68,-3.25,15.6
"2009-04-06 01:02:00",775178,6.34,47.16,3.647,0.922,1.624,98.70792,-3.992,-2.684,71.56,0,109.3,13.68,-3.25,9.2
"2009-04-06 01:02:30",775179,5.959,45.39,5.689,0.821,1.476,98.70792,-3.992,-2.694,71.76,0,109.3,13.68,-3.25,7.4
"2009-04-06 01:03:00",775180,5.346,39.62,5.873,0.783,1.443,98.70792,-3.992,-2.7,71.95,0,109.3,13.68,-3.25,1.6
"2009-04-06 01:03:30",775181,5.618,43.6,6.86,0.935,0.963,98.70792,-3.992,-2.685,72.12,0,109.3,13.68,-3.25,5.6
"2009-04-06 01:04:00",775182,4.457,38.35,5.671,1.22,-0.523,98.70792,-3.992,-2.865,72.09,0,109.3,13.68,-3.25,0.3
"2009-04-06 01:04:30",775183,3.325,33.79,4.053,0.889,-2.9,98.70792,-3.992,-2.958,72.17,0,109.3,13.68,-3.25,355.8
"2009-04-06 01:05:00",775184,4.922,41.05,6.62,1.403,-1.27,98.70792,-3.992,-2.761,72.45,0,109.3,13.68,-3.25,3.0
"2009-04-06 01:05:30",775185,6.263,52.64,3.774,0.748,1.743,98.70792,-3.992,-2.66,72.64,0,109.3,13.68,-3.25,14.6
"2009-04-06 01:06:00",775186,6.622,51.16,4.461,0.856,2.481,98.70792,-3.992,-2.643,72.72,0,109.3,13.68,-3.25,13.2
"2009-04-06 01:06:30",775187,6.793,53.39,4.423,0.639,2.782,98.70792,-3.992,-2.656,72.82,0,109.3,13.68,-3.25,15.4
"2009-04-06 01:07:00",775188,6.447,51.17,3.943,0.711,2.436,98.70792,-3.992,-2.658,72.93,0,109.3,13.68,-3.25,13.2
"2009-04-06 01:07:30",775189,6.812,54.68,2.253,0.75,2.139,98.70792,-3.992,-2.649,73.04,0,109.3,13.68,-3.25,16.7
"2009-04-06 01:08:00",775190,6.774,58.57,3.23,0.494,2.204,98.70821,-3.991,-2.644,72.99,0,109.3,13.68,-3.25,20.6
"2009-04-06 01:08:30",775191,6.581,60.88,3.727,0.758,1.784,98.7116,-3.983,-2.644,72.87,0,109.3,13.68,-3.24,22.9
"2009-04-06 01:09:00",775192,6.266,63.53,2.963,0.819,1.583,98.71585,-3.972,-2.655,72.77,0,109.3,13.68,-3.23,25.5
"2009-04-06 01:09:30",775193,5.876,55.15,3.373,0.793,1.366,98.71812,-3.966,-2.638,72.63,0,109.3,13.68,-3.23,17.2
"2009-04-06 01:10:00",775194,5.98,49.92,5.321,0.399,1.325,98.72293,-3.954,-2.632,72.53,0,109.3,13.68,-3.22,11.9
"2009-04-06 01:10:30",775195,6.058,50.18,4.831,0.707,1.271,98.72492,-3.949,-2.604,72.63,0,109.3,13.68,-3.21,12.2
"2009-04-06 01:11:00",775196,6.289,54.86,4.084,0.639,1.24,98.72691,-3.944,-2.629,72.67,0,109.3,13.68,-3.21,16.9
"2009-04-06 01:11:30",775197,6.436,52.72,5.012,0.596,1.245,98.72916,-3.938,-2.622,72.5,0,109.3,13.68,-3.20,14.7
"2009-04-06 01:12:00",775198,7.23,57.45,5.215,0.609,1.34,98.73937,-3.912,-2.619,72.28,0,109.3,13.68,-3.17,19.5
"2009-04-06 01:12:30",775199,7.648,56.43,3.23,0.641,1.397,98.74165,-3.906,-2.618,71.61,0,109.3,13.68,-3.17,18.4
"2009-04-06 01:13:00",775200,7.124,58.71,5.343,0.553,1.598,98.74193,-3.905,-2.614,70.92,0,109.3,13.68,-3.17,20.7
"2009-04-06 01:13:30",775201,6.885,58.84,2.591,0.758,1.664,98.74193,-3.905,-2.626,70.49,0,109.3,13.68,-3.17,20.8
"2009-04-06 01:14:00",775202,6.735,58.82,2.935,0.68,1.544,98.74193,-3.905,-2.6,70.35,0,109.3,13.68,-3.17,20.8
"2009-04-06 01:14:30",775203,7.118,53.67,3.238,0.731,1.568,98.74193,-3.905,-2.573,70.3,0,109.3,13.68,-3.17,15.7
"2009-04-06 01:15:00",775204,6.748,59.12,3.546,0.711,1.756,98.74193,-3.905,-2.591,69.92,0,109.3,13.68,-3.17,21.1
"2009-04-06 01:15:30",775205,6.622,54.96,3.513,0.692,1.706,98.74476,-3.898,-2.588,69.76,0,109.3,13.69,-3.16,17.0
"2009-04-06 01:16:00",775206,5.726,47.37,4.006,0.749,1.532,98.75127,-3.881,-2.586,69.82,0,109.3,13.69,-3.14,9.4
"2009-04-06 01:16:30",775207,5.926,52.53,4.25,0.576,1.322,98.76572,-3.845,-2.559,70.12,0,109.3,13.69,-3.11,14.5
"2009-04-06 01:17:00",775208,6.536,51.23,5.421,0.48,1.194,98.77536,-3.82,-2.541,70.36,0,109.3,13.69,-3.08,13.2
"2009-04-06 01:17:30",775209,6.274,49.59,4.134,0.595,1.345,98.77592,-3.819,-2.543,70.27,0,109.3,13.69,-3.08,11.6
"2009-04-06 01:18:00",775210,6.747,51.38,4.653,0.517,1.256,98.77592,-3.819,-2.538,70.04,0,109.3,13.69,-3.08,13.4
"2009-04-06 01:18:30",775211,6.833,50.55,3.77,0.614,1.297,98.77592,-3.819,-2.52,69.76,0,109.3,13.69,-3.08,12.5
"2009-04-06 01:19:00",775212,6.174,52.95,3.977,0.677,1.303,98.77592,-3.819,-2.526,69.46,0,109.3,13.69,-3.08,15.0
"2009-04-06 01:19:30",775213,5.685,49.5,5.47,0.69,1.358,98.77592,-3.819,-2.527,69.41,0,109.3,13.69,-3.08,11.5
"2009-04-06 01:20:00",775214,5.725,47.98,3.798,0.582,1.19,98.77592,-3.819,-2.494,69.48,0,109.2,13.69,-3.08,10.0
"2009-04-06 01:20:30",775215,5.984,49.23,5.471,0.827,1.067,98.77592,-3.819,-2.483,69.44,0,109.3,13.69,-3.08,11.2
"2009-04-06 01:21:00",775216,6.35,53.12,4.391,0.545,1.054,98.77648,-3.817,-2.473,69.41,0,109.3,13.69,-3.08,15.1
"2009-04-06 01:21:30",775217,6.433,51.72,5.67,0.693,1.237,98.77847,-3.812,-2.492,69.41,0,109.3,13.68,-3.07,13.7
"2009-04-06 01:22:00",775218,6.592,49.16,4.547,0.463,1.258,98.78215,-3.803,-2.492,69.09,0,109.3,13.68,-3.06,11.2
"2009-04-06 01:22:30",775219,7.042,51.14,4.474,0.601,1.36,98.7864,-3.792,-2.481,68.62,0,109.3,13.68,-3.05,13.1
"2009-04-06 01:23:00",775220,6.577,50.37,3.486,0.76,1.204,98.79292,-3.775,-2.479,68.27,0,109.3,13.68,-3.04,12.4
"2009-04-06 01:23:30",775221,6.8,51.87,3.435,0.762,1.451,98.80539,-3.744,-2.456,68.13,0,109.3,13.68,-3.00,13.9
"2009-04-06 01:24:00",775222,6.471,50.25,2.915,0.646,1.412,98.80907,-3.734,-2.456,68.05,0,109.2,13.68,-3.00,12.2
"2009-04-06 01:24:30",775223,5.865,49.67,4.052,0.695,1.361,98.8102,-3.731,-2.454,68.09,0,109.3,13.68,-2.99,11.7
"2009-04-06 01:25:00",775224,6.219,51.14,4.026,0.539,1.282,98.81104,-3.729,-2.451,68.12,0,109.3,13.68,-2.99,13.1
"2009-04-06 01:25:30",775225,6.746,56.08,4.158,0.559,1.331,98.81048,-3.731,-2.442,68.12,0,109.3,13.68,-2.99,18.1
"2009-04-06 01:26:00",775226,6.616,54.5,4.924,0.352,1.342,98.8102,-3.731,-2.437,67.9,0,109.2,13.68,-2.99,16.5
"2009-04-06 01:26:30",775227,5.964,51.19,5.017,0.627,1.334,98.81104,-3.729,-2.424,67.92,0,109.3,13.69,-2.99,13.2
"2009-04-06 01:27:00",775228,6.083,52.41,3.948,0.646,1.281,98.81133,-3.729,-2.433,68.06,0,109.3,13.69,-2.99,14.4
"2009-04-06 01:27:30",775229,6.284,54.69,3.784,0.644,1.498,98.8102,-3.731,-2.417,68.05,0,109.3,13.69,-2.99,16.7
"2009-04-06 01:28:00",775230,6.138,53,3.944,0.549,1.222,98.8102,-3.731,-2.412,67.7,0,109.3,13.69,-2.99,15.0
"2009-04-06 01:28:30",775231,6.278,54.34,4.905,0.505,1.227,98.8102,-3.731,-2.409,67.44,0,109.3,13.69,-2.99,16.3
"2009-04-06 01:29:00",775232,6.301,52.97,4.121,0.69,1.161,98.8102,-3.731,-2.41,67.19,0,109.3,13.69,-2.99,15.0
"2009-04-06 01:29:30",775233,6.157,54.04,3.423,0.603,1.341,98.81216,-3.726,-2.42,67.1,0,109.3,13.69,-2.99,16.0
"2009-04-06 01:30:00",775234,5.514,49.91,4.988,0.612,1.204,98.81188,-3.727,-2.4,67.17,0,109.3,13.69,-2.99,11.9
"2009-04-06 01:30:30",775235,5.259,44.94,4.975,0.753,0.456,98.81188,-3.727,-2.448,67.35,0,109.3,13.69,-2.99,6.9
"2009-04-06 01:31:00",775236,4.295,38.55,6.338,1.073,-1.522,98.81216,-3.726,-2.63,67.44,0,109.3,13.69,-2.99,0.5
"2009-04-06 01:31:30",775237,2.71,27.53,3.225,0.279,-3.032,98.81161,-3.728,-2.67,67.59,0,109.3,13.72,-2.99,349.5
"2009-04-06 01:32:00",775238,4.338,41.91,6.72,1.033,0.523,98.81245,-3.726,-2.509,67.85,0,109.3,13.69,-2.99,3.9
"2009-04-06 01:32:30",775239,5.176,47.29,4.411,0.81,1.877,98.81188,-3.727,-2.401,67.89,0,109.3,13.7,-2.99,9.3
"2009-04-06 01:33:00",775240,5.395,49.5,3.615,0.612,2.328,98.81496,-3.719,-2.396,67.85,0,109.3,13.7,-2.98,11.5
"2009-04-06 01:33:30",775241,5.069,49.05,3.539,0.541,2.138,98.81553,-3.718,-2.389,67.79,0,109.3,13.7,-2.98,11.0
"2009-04-06 01:34:00",775242,4.909,49.37,3.468,0.59,1.655,98.81664,-3.715,-2.397,67.74,0,109.3,13.7,-2.98,11.4
"2009-04-06 01:34:30",775243,4.385,45.78,5.506,1.088,0.007,98.81749,-3.713,-2.518,67.65,0,109.3,13.7,-2.97,7.8
"2009-04-06 01:35:00",775244,2.678,35.91,5.536,0.229,-2.884,98.81605,-3.717,-2.687,67.44,0,109.3,13.73,-2.98,357.9
"2009-04-06 01:35:30",775245,3.49,34.43,6.316,0.542,-2.498,98.80527,-3.744,-2.621,67.52,0,109.3,13.7,-3.01,356.4
"2009-04-06 01:36:00",775246,5.469,44.35,4.714,0.85,1.985,98.79646,-3.766,-2.383,67.73,0,109.3,13.7,-3.03,6.3
"2009-04-06 01:36:30",775247,6.221,52.28,3.531,0.718,2.312,98.79416,-3.772,-2.402,67.6,0,109.3,13.7,-3.03,14.3
"2009-04-06 01:37:00",775248,6.003,47.75,4.237,0.739,2.504,98.793,-3.775,-2.414,67.36,0,109.4,13.7,-3.04,9.8
"2009-04-06 01:37:30",775249,5.72,44.52,4.35,0.775,2.366,98.79412,-3.772,-2.417,67.01,0,109.3,13.69,-3.03,6.5
"2009-04-06 01:38:00",775250,6.143,51.19,4.645,0.653,1.936,98.79607,-3.767,-2.433,66.73,0,109.3,13.69,-3.03,13.2
"2009-04-06 01:38:30",775251,5.918,48.68,3.738,0.587,1.728,98.79412,-3.772,-2.431,66.61,0,109.3,13.69,-3.03,10.7
"2009-04-06 01:39:00",775252,5.479,49.82,4.243,0.778,1.619,98.79236,-3.777,-2.451,66.56,0,109.3,13.69,-3.04,11.8
"2009-04-06 01:39:30",775253,5.332,48.05,5.537,0.7,1.303,98.77792,-3.814,-2.46,66.56,0,109.3,13.69,-3.08,10.0
"2009-04-06 01:40:00",775254,3.228,34.33,6.881,1.133,-1.294,98.76828,-3.838,-2.726,66.41,0,109.3,13.69,-3.10,356.3
"2009-04-06 01:40:30",775255,2.648,36.84,3.75,0.485,-3.214,98.76403,-3.849,-2.718,66.69,0,109.3,13.73,-3.11,358.8
"2009-04-06 01:41:00",775256,4.748,43.91,6.101,1.158,0.411,98.76627,-3.843,-2.618,66.92,0,109.3,13.69,-3.10,5.9
"2009-04-06 01:41:30",775257,5.231,42.63,5.074,0.767,2.162,98.76627,-3.843,-2.499,67.08,0,109.3,13.7,-3.10,4.6
"2009-04-06 01:42:00",775258,5.251,43.01,3.119,0.687,2.352,98.76683,-3.842,-2.494,67.2,0,109.3,13.7,-3.10,5.0
"2009-04-06 01:42:30",775259,6.182,49.12,4.224,0.731,2.284,98.76711,-3.841,-2.501,67.18,0,109.3,13.7,-3.10,11.1
"2009-04-06 01:43:00",775260,6.274,47.22,4.386,0.48,2.23,98.75747,-3.866,-2.505,67.09,0,109.3,13.7,-3.13,9.2
"2009-04-06 01:43:30",775261,5.575,45.44,4.252,0.753,1.96,98.74699,-3.892,-2.529,67.33,0,109.3,13.7,-3.15,7.4
"2009-04-06 01:44:00",775262,4.867,39.28,3.664,0.879,1.579,98.73819,-3.915,-2.539,67.9,0,109.3,13.7,-3.18,1.3
"2009-04-06 01:44:30",775263,3.559,33.86,7.083,1.2,-1.08,98.7345,-3.924,-2.621,68.39,0,109.3,13.7,-3.19,355.9
"2009-04-06 01:45:00",775264,2.881,31.64,2.967,0.228,-2.792,98.73645,-3.919,-2.784,68.6,0,109.3,13.74,-3.18,353.6
"2009-04-06 01:45:30",775265,3.429,34.28,5.155,0.914,-1.839,98.73673,-3.919,-2.701,68.58,0,109.3,13.71,-3.18,356.3
"2009-04-06 01:46:00",775266,5.562,44.15,4.277,0.639,1.921,98.73534,-3.922,-2.558,68.53,0,109.3,13.71,-3.18,6.2
"2009-04-06 01:46:30",775267,5.517,44.28,4.09,0.845,2.238,98.72884,-3.939,-2.579,68.5,0,109.3,13.71,-3.20,6.3
"2009-04-06 01:47:00",775268,5.252,42.86,3.018,0.813,2.355,98.7203,-3.96,-2.581,68.55,0,109.3,13.71,-3.22,4.9